SCP
0 0 0 0 0 0 0 0 0 1 1 1 2 4 5 6 5 5 4 4 4 5 5 5 6 6 6 5 5 4 4 4 4 3 3 4 5 5 4 4 3 3 3 4
0 0 0 0 0 0 0 0 0 1 1 2 4 5 6 5 5 4 3 3 4 5 5 6 6 6 6 5 5 5 5 4 4 3 3 4 4 4 4 4 4 3 3 3
0 0 0 1 1 1 1 1 1 1 2 3 4 5 4 4 3 3 3 3 4 5 6 6 6 5 5 5 5 6 6 5 4 3 3 3 3 3 3 4 4 3 3 3
0 0 0 1 1 1 1 1 2 2 2 2 3 2 2 2 2 3 3 4 5 6 7 7 5 4 4 5 5 6 6 5 4 4 3 3 3 3 4 4 4 4 3 3
0 0 0 1 1 1 2 2 2 2 2 2 2 1 1 2 2 3 4 5 6 7 8 7 5 4 4 5 5 5 5 5 4 4 4 3 4 4 4 5 5 5 4 4
0 0 1 1 1 1 2 2 2 2 2 2 2 1 2 2 3 4 5 6 6 7 7 6 5 4 5 5 5 5 5 6 6 6 5 4 4 4 4 4 4 5 4 4
0 0 1 1 1 1 2 2 2 2 2 2 2 2 3 3 4 4 5 5 5 6 6 6 5 4 5 6 6 6 7 8 9 7 6 5 5 4 4 4 4 4 4 4
0 1 1 1 1 1 2 2 2 2 3 3 3 4 4 4 5 5 5 5 5 6 6 5 5 6 7 7 7 8 9 10 9 7 6 4 4 3 3 3 3 3 3 3
1 1 1 1 2 2 2 2 2 2 3 4 4 5 4 5 5 5 6 6 6 6 6 7 7 7 8 7 7 8 8 8 7 5 4 3 3 2 2 2 2 2 2 2
2 2 2 2 2 2 2 3 3 3 4 5 5 5 4 4 5 5 6 6 6 6 7 8 8 8 8 7 7 7 7 6 5 4 3 2 2 2 2 2 2 2 2 2
2 2 2 2 2 3 3 3 4 4 4 5 5 5 5 4 5 6 6 6 6 7 8 9 9 9 9 8 8 8 7 6 4 4 3 3 2 2 2 2 2 2 2 1
3 3 3 3 3 3 3 4 5 5 5 5 6 6 6 5 6 7 8 8 7 7 9 10 10 11 11 9 8 8 8 6 5 4 3 2 2 1 1 1 1 1 1 1
5 4 4 4 4 4 4 5 5 6 6 6 6 6 6 6 7 8 9 9 8 8 10 11 11 12 11 10 9 9 8 7 5 4 3 2 2 1 1 0 0 0 0 0
6 6 5 5 5 5 5 5 6 6 7 6 6 6 5 5 7 8 9 9 9 10 10 10 11 11 11 10 10 9 8 7 5 4 3 2 2 1 1 1 1 0 0 0
6 6 5 5 5 5 5 5 6 7 7 6 6 5 4 5 6 8 9 9 9 9 9 10 10 10 10 11 11 10 8 6 5 4 3 2 2 1 1 1 1 1 0 0
5 5 4 4 4 4 4 4 5 5 6 6 5 4 5 7 9 10 11 11 10 9 9 9 10 11 11 11 11 11 9 6 4 3 3 2 2 1 1 1 1 1 0 0
4 4 3 3 3 3 4 4 4 4 5 5 5 5 6 9 11 14 16 16 14 13 11 11 11 12 12 11 12 11 9 5 3 3 2 2 2 1 1 1 1 0 0 0
3 3 3 3 3 3 3 3 4 4 5 5 5 6 7 9 11 14 16 16 15 15 14 13 11 10 10 10 10 10 8 5 3 3 2 2 2 2 1 1 1 1 0 0
3 3 3 3 3 3 3 3 3 4 5 5 4 6 8 9 9 10 11 11 11 11 12 10 8 7 7 6 6 6 5 3 3 3 2 2 2 2 2 2 2 1 1 1
4 4 4 4 4 3 3 3 3 4 4 4 4 5 7 8 8 8 7 7 7 7 7 6 6 5 5 4 3 3 3 2 2 3 3 2 3 3 3 2 2 2 2 2
4 4 4 4 4 4 4 3 4 4 4 4 4 4 5 6 7 7 6 6 6 6 5 5 5 5 5 4 3 2 2 2 2 3 3 3 3 3 3 3 3 3 3 3
4 4 4 4 4 4 4 4 4 4 4 4 4 4 4 4 5 6 6 6 6 5 5 5 4 4 4 3 3 3 3 2 2 3 3 3 3 3 3 3 3 3 3 3
3 3 3 3 4 4 4 4 4 4 4 4 4 4 3 3 4 4 5 5 4 4 4 4 3 2 2 3 3 3 3 3 2 2 3 3 3 3 3 3 3 3 2 2
2 2 3 3 4 4 4 4 4 4 4 4 4 4 4 4 4 4 4 3 2 2 3 2 1 1 1 2 2 2 2 2 2 2 2 2 2 2 2 2 2 2 2 2
1 2 3 4 5 5 4 4 4 3 3 3 3 3 4 4 4 5 5 3 1 1 1 1 0 0 0 1 1 1 1 1 1 1 1 1 1 1 1 1 2 2 1 1
2 3 4 6 6 5 5 5 4 3 3 3 3 3 3 3 4 4 4 3 1 1 1 1 0 0 0 0 1 1 1 1 1 1 1 1 1 1 1 1 1 1 1 1
2 4 6 7 6 6 5 5 4 3 3 2 2 2 2 3 3 4 3 2 1 1 1 1 1 0 0 0 1 1 1 1 1 1 1 1 1 1 1 1 1 1 1 1
Wind_Speed
9 6 12 14 16 15 15 13 11 9 9 6 5 4 5 5 6 8 8 9 9 9 9 9 9 9 8 8 7 7 7 7 7 7 6 6 6 5 5 4 4 4 4 4
10 9 10 12 14 15 15 14 12 10 8 5 4 4 5 6 7 8 8 9 10 10 10 9 9 9 9 8 8 8 7 7 7 7 7 7 6 6 5 5 4 4 4 4
12 12 12 15 14 14 14 12 12 11 8 6 6 6 6 6 7 7 8 9 10 10 10 9 9 9 9 9 9 8 8 8 8 8 8 7 7 7 6 5 5 4 4 5
9 12 16 8 7 10 11 10 9 7 5 6 5 4 4 5 6 6 7 8 9 9 10 9 9 9 9 10 9 9 9 8 8 8 8 8 7 7 6 5 5 4 4 5
10 14 12 7 7 10 11 10 8 8 6 5 5 5 5 4 4 5 6 6 7 8 9 9 10 10 10 10 10 9 9 9 9 8 8 8 8 7 6 5 5 5 4 4
10 13 13 9 7 5 8 9 6 7 6 6 7 8 4 4 4 4 5 5 6 8 9 9 9 10 10 10 10 10 9 9 9 8 8 8 8 7 6 6 5 5 5 4
12 12 8 4 6 8 11 5 5 4 4 5 5 2 2 2 4 4 5 5 6 8 8 8 9 10 10 10 10 9 9 9 9 8 8 8 7 6 6 6 6 5 5 4
12 13 7 5 6 6 2 4 3 3 3 3 2 1 0 2 4 4 5 6 7 7 7 8 9 9 9 9 9 9 10 9 9 9 8 7 7 7 6 6 6 6 5 5
4 2 6 3 2 4 3 2 1 1 1 2 2 1 2 3 4 5 6 6 6 7 7 7 8 8 8 8 9 10 10 10 9 9 7 7 8 7 7 6 5 5 5 4
3 4 4 3 3 2 2 2 1 0 1 1 1 2 2 3 4 5 6 6 6 7 7 7 7 7 7 8 9 10 10 10 9 9 8 7 6 6 5 5 5 5 5 4
4 4 4 4 2 3 2 2 2 1 1 1 2 2 2 3 4 4 5 5 5 6 6 7 7 7 7 8 9 10 10 9 9 8 7 7 6 3 4 3 1 2 3 3
3 3 1 3 1 1 1 2 3 2 2 2 1 1 2 2 3 4 4 4 5 5 6 7 7 7 7 8 9 10 9 9 7 7 7 6 7 5 4 3 5 4 3 1
1 1 1 1 1 1 2 2 2 2 2 1 1 1 2 2 3 3 4 4 5 5 6 6 7 7 8 8 9 9 8 8 7 7 7 6 6 6 6 4 3 2 2 1
1 1 1 1 1 2 2 2 2 2 2 1 1 1 2 3 3 3 3 4 4 5 5 6 6 7 7 8 8 8 8 8 7 6 6 6 6 6 5 6 6 5 4 4
3 3 2 1 1 1 1 0 0 1 1 1 1 2 3 3 3 3 3 4 5 5 5 5 5 6 6 7 8 8 7 6 6 6 6 5 5 5 5 5 5 4 5 5
3 3 3 3 2 2 2 1 1 0 0 1 2 2 3 3 3 4 4 4 5 5 5 4 4 5 5 7 7 6 5 5 5 5 5 5 5 5 5 5 5 5 5 5
5 5 4 3 3 3 3 2 2 1 1 2 2 3 4 4 4 4 4 4 4 4 3 3 3 4 4 5 5 4 5 5 6 5 5 5 5 5 5 5 5 4 4 4
6 6 5 4 4 4 3 3 3 2 3 3 3 4 4 4 4 4 4 4 4 3 3 3 3 4 4 4 4 3 4 5 6 5 4 4 4 4 4 4 5 5 4 5
6 6 5 5 5 5 4 4 4 3 3 4 4 4 3 3 4 4 4 4 4 3 2 3 3 3 4 4 3 3 4 5 5 5 4 5 5 4 4 4 4 4 4 4
5 5 5 5 4 4 4 4 4 4 4 5 5 5 4 4 4 3 3 2 1 1 3 3 3 3 3 3 3 3 4 4 4 4 4 4 4 4 4 4 4 3 4 4
4 4 4 4 4 4 4 4 4 4 4 5 5 5 4 4 4 4 3 2 2 2 3 3 3 2 2 3 4 4 4 4 4 4 5 4 4 4 4 4 4 4 4 4
2 2 3 3 3 3 3 3 3 4 4 4 5 5 5 5 4 3 3 2 2 3 3 3 2 2 2 2 3 3 4 4 4 4 4 4 4 4 4 4 4 4 4 4
0 1 2 2 2 2 2 2 2 2 3 4 4 4 4 3 3 3 3 2 3 3 2 1 3 4 2 3 3 3 3 4 4 4 4 4 4 4 4 4 4 4 4 4
1 1 1 1 2 3 3 3 2 2 2 2 3 3 3 3 2 1 1 4 4 3 2 3 4 4 4 3 3 3 3 3 3 3 3 4 4 3 3 3 3 3 3 4
1 1 2 2 3 3 3 3 3 3 3 2 3 2 1 1 1 2 2 3 3 3 3 4 4 4 4 3 3 3 3 2 2 2 2 2 3 3 3 3 4 3 4 4
2 1 1 1 2 2 3 3 3 3 3 3 3 2 2 2 2 2 2 3 3 3 2 3 4 4 3 2 2 2 2 3 3 3 3 3 3 3 2 2 3 3 3 3
2 2 2 1 1 1 1 2 3 3 3 3 3 2 2 2 2 2 2 2 2 2 2 2 2 2 2 2 2 2 2 2 2 2 2 2 2 2 2 3 3 2 2 2
Wind_Direction
239 224 200 203 205 209 224 235 239 225 228 219 202 182 162 150 150 153 155 162 166 166 164 164 161 162 162 160 159 158 158 159 157 154 152 149 147 143 136 133 124 114 108 103
213 210 213 214 211 210 220 231 236 235 230 214 183 165 164 165 164 166 167 169 170 168 167 168 166 166 162 160 157 157 159 158 154 152 153 152 149 142 138 133 123 122 116 104
206 202 211 217 214 213 217 223 230 229 224 192 182 184 184 182 179 177 175 172 174 174 173 172 172 166 164 161 157 156 156 154 153 154 154 153 150 144 144 143 133 123 115 106
207 199 220 212 206 218 222 221 226 230 208 192 197 191 186 184 185 180 177 175 175 177 173 171 168 165 162 159 159 158 157 155 155 157 155 154 150 147 146 142 137 131 124 116
213 211 213 186 192 206 209 214 212 213 203 198 186 192 186 177 186 182 175 174 175 175 172 169 167 164 162 162 161 161 161 161 161 161 157 156 154 151 151 149 144 143 132 130
216 223 217 192 170 194 214 207 193 204 198 195 192 215 169 148 172 169 158 162 166 166 166 165 165 163 164 163 164 167 165 164 162 162 160 159 156 154 152 152 150 150 138 140
217 222 218 126 155 182 211 176 151 181 189 199 206 281 51 128 158 156 151 153 157 161 163 162 163 164 166 166 168 164 158 157 157 157 158 156 152 153 154 156 152 152 149 150
216 222 195 117 179 202 81 86 129 158 179 202 203 218 144 125 146 146 146 148 152 154 154 155 162 166 167 168 161 154 151 151 152 156 156 151 153 155 157 156 158 161 164 164
221 188 83 119 106 62 50 75 85 117 179 201 199 186 150 140 147 147 146 148 150 150 150 153 161 170 169 162 155 152 151 152 153 155 155 156 162 164 166 174 180 174 176 175
172 132 117 123 110 78 48 30 9 339 180 183 157 133 137 142 147 150 149 151 153 155 156 158 161 169 165 157 156 156 155 156 158 159 160 161 172 174 177 182 187 184 184 181
177 139 137 129 90 59 47 44 59 83 101 109 111 106 119 144 148 153 150 154 159 161 163 162 162 163 160 158 162 163 161 162 163 163 161 163 169 169 189 171 176 206 189 184
171 140 155 121 73 34 43 46 46 53 64 69 83 102 108 132 150 158 156 155 159 163 163 160 160 159 157 161 167 168 165 167 167 167 167 171 165 159 66 63 85 66 30 346
26 84 63 103 68 49 31 31 35 42 44 42 54 93 123 130 142 152 152 161 165 164 161 157 158 158 160 166 170 175 172 169 172 171 170 177 175 175 167 142 113 108 107 75
179 163 161 151 27 356 354 8 32 51 46 44 63 104 125 130 134 143 148 155 155 155 154 155 158 160 164 168 171 174 177 169 176 175 176 180 182 184 182 180 179 176 171 175
219 236 226 241 290 312 316 335 106 95 73 81 102 125 134 140 140 133 135 142 140 141 143 152 159 160 166 171 174 175 177 173 178 177 178 179 183 187 187 187 190 182 165 159
224 222 214 218 240 262 251 239 237 207 136 126 135 145 143 140 135 132 135 143 152 150 151 159 160 159 168 173 173 174 175 162 171 175 177 178 181 185 187 189 193 192 188 175
229 223 218 226 240 252 269 277 264 235 203 178 164 155 150 141 136 132 137 146 146 143 150 154 154 154 168 176 178 175 169 162 177 184 181 181 181 187 191 196 199 196 192 167
244 244 242 240 248 257 263 265 255 237 224 201 180 173 169 162 157 143 139 134 131 132 140 148 145 156 163 175 191 186 175 171 182 190 180 178 180 188 193 199 201 197 181 162
234 234 236 243 250 255 258 262 255 236 224 209 196 190 184 176 162 152 146 145 150 152 148 133 134 172 172 165 177 193 189 180 179 176 176 167 183 191 193 197 198 193 185 177
228 228 231 238 246 251 253 254 248 235 222 208 199 189 181 168 159 160 155 157 178 154 143 149 169 182 175 161 188 196 193 189 182 173 173 180 186 185 187 191 193 190 190 190
215 218 228 239 245 248 245 245 239 227 213 203 199 190 177 167 169 169 171 175 165 158 155 153 181 182 166 157 196 204 196 191 185 178 175 180 184 186 186 187 189 191 194 195
203 207 220 231 234 233 229 229 225 215 199 190 188 182 175 174 176 174 178 194 171 158 178 172 166 119 135 188 200 200 194 189 186 182 179 183 187 189 190 190 192 194 196 196
243 205 211 219 222 217 214 215 207 193 180 178 179 177 182 187 192 188 182 166 164 151 196 160 116 125 173 208 197 188 190 193 192 189 186 185 190 194 197 197 200 198 196 196
217 200 220 228 196 197 204 195 173 157 152 160 159 160 172 179 180 196 151 128 129 148 178 116 130 154 203 208 188 185 187 190 191 190 187 184 184 189 194 200 206 199 197 201
209 202 196 194 195 194 177 172 165 160 158 143 134 141 179 183 167 147 134 130 133 159 160 142 162 186 212 205 185 183 183 182 182 189 181 186 187 187 188 193 202 200 199 201
188 190 167 178 187 194 187 180 170 159 154 145 142 146 142 131 129 136 144 146 155 173 171 159 171 191 198 181 170 174 176 169 178 190 186 184 184 182 176 188 202 207 205 202
165 153 146 151 162 188 186 172 163 159 153 146 142 140 141 140 137 142 149 151 157 169 165 163 170 176 174 168 162 171 182 185 180 173 175 178 172 173 176 190 199 197 199 192